Torna al catalogo

STARLINK-33893

AttivoComunicazioniVLEO
NORAD 64253·PAYLOAD·🇺🇸 United States

Lanciato Jun 3, 2025 da Cape Canaveral Space Force Station

Loading…

Prossimi Passaggi (prossime 24 ore)

TLE

AggiornatoSource: CelesTrak SupGP

Epoca: Sep 14, 2026, 22:11 UTC

1 64253C 25119W   26257.92479167 -.00016029  00000+0 -58055-3 0  2577
2 64253  43.0035 318.5472 0001698 266.9538 252.4076 15.27586804    13

Traccia STARLINK-33893 in tempo reale con AllMySat

Download on the App Store